EW9951 Weather Reports


time (UTC)temp
C
wind
direction
speed
KPH
gust
KPH
rain 1hr
cm
rain 24hr
cm
rain mn
cm
humidity
%
barometer
mb
20260507211552 18 345 12.9 24.1 0.00 0.00 0.00 83 1015.4
20260507210050 18 327 14.5 22.5 0.00 0.00 0.00 82 1015.4
20260507204549 17 286 16.1 29.0 0.00 0.00 0.00 83 1015.6
20260507203046 18 271 14.5 25.7 0.00 0.00 0.00 82 1015.6
20260507201559 18 276 14.5 27.4 0.00 0.00 0.00 81 1015.7
20260507200055 18 299 17.7 25.7 0.00 0.00 0.00 82 1015.7
20260507194545 17 293 16.1 24.1 0.00 0.00 0.00 83 1015.8
20260507193048 18 278 17.7 22.5 0.00 0.00 0.00 82 1015.7
20260507191544 18 282 12.9 22.5 0.00 0.00 0.00 81 1015.9
20260507190047 18 276 12.9 20.9 0.00 0.00 0.00 81 1016.0
20260507184540 18 146 14.5 22.5 0.00 0.00 0.00 82 1016.1
20260507183042 18 290 9.7 24.1 0.00 0.00 0.00 83 1016.3
20260507181539 17 302 11.3 20.9 0.00 0.00 0.00 83 1016.4
20260507180035 17 270 6.4 14.5 0.00 0.00 0.00 84 1016.4
20260507174547 17 262 11.3 16.1 0.00 0.00 0.00 84 1016.5
20260507173036 17 295 9.7 14.5 0.00 0.00 0.00 84 1016.5
20260507171529 17 303 11.3 17.7 0.00 0.00 0.00 85 1016.6
20260507170027 17 326 6.4 12.9 0.00 0.00 0.00 85 1016.6
20260507164524 17 292 6.4 14.5 0.00 0.00 0.00 86 1016.7
20260507163021 17 328 4.8 12.9 0.00 0.00 0.00 86 1016.7
20260507161518 16 299 1.6 16.1 0.00 0.00 0.00 86 1016.8
20260507160016 16 17 8.0 12.9 0.00 0.00 0.00 86 1016.9
20260507154513 16 305 8.0 12.9 0.00 0.00 0.00 87 1016.8
20260507153009 16 278 6.4 11.3 0.00 0.00 0.00 87 1016.8
20260507151508 16 311 0.0 9.7 0.00 0.00 0.00 87 1016.8
20260507150005 16 317 6.4 12.9 0.00 0.00 0.00 87 1016.6
20260507144503 16 301 3.2 8.0 0.00 0.00 0.00 87 1016.5
20260507143103 16 14 0.0 1.6 0.00 0.00 0.00 88 1016.5
20260507141605 16 29 0.0 3.2 0.00 0.00 0.00 88 1016.4
20260507140059 16 31 0.0 3.2 0.00 0.00 0.00 89 1016.3
20260507134600 16 23 1.6 4.8 0.00 0.00 0.00 89 1016.2
20260507133054 16 33 0.0 8.0 0.00 0.00 0.00 89 1016.1
20260507131552 15 22 3.2 4.8 0.00 0.00 0.00 90 1016.1
20260507130100 15 15 1.6 4.8 0.00 0.00 0.00 90 1016.1
20260507124607 15 12 1.6 3.2 0.00 0.00 0.00 90 1015.8
20260507123104 15 10 1.6 4.8 0.00 0.00 0.00 90 1015.8
20260507121558 15 347 0.0 3.2 0.00 0.00 0.00 89 1015.8
20260507120048 15 294 0.0 3.2 0.00 0.00 0.00 89 1015.8
20260507114552 16 347 3.2 8.0 0.00 0.00 0.00 89 1015.7
20260507113047 15 335 3.2 8.0 0.00 0.00 0.00 89 1015.6
20260507111545 15 303 3.2 9.7 0.00 0.00 0.00 90 1015.8
20260507110045 15 354 4.8 6.4 0.00 0.00 0.00 90 1015.8
20260507104544 15 345 3.2 8.0 0.00 0.00 0.00 90 1015.9
20260507103042 15 350 3.2 6.4 0.00 0.00 0.00 91 1016.1
20260507101550 15 348 3.2 4.8 0.00 0.00 0.00 91 1016.2
20260507100050 15 310 1.6 4.8 0.00 0.00 0.00 91 1016.2
20260507094539 15 310 0.0 1.6 0.00 0.00 0.00 91 1016.3
20260507093037 15 310 0.0 0.0 0.00 0.00 0.00 91 1016.4
20260507091536 15 310 0.0 3.2 0.00 0.00 0.00 91 1016.5
20260507090034 16 347 0.0 0.0 0.00 0.00 0.00 90 1016.6
20260507084531 16 347 0.0 0.0 0.00 0.00 0.00 90 1016.8
20260507083035 16 347 0.0 0.0 0.00 0.00 0.00 90 1016.9
20260507081528 16 312 3.2 4.8 0.00 0.00 0.00 90 1017.1
20260507080028 16 14 0.0 4.8 0.00 0.00 0.00 90 1017.2
20260507074527 16 4 1.6 4.8 0.00 0.00 0.00 90 1017.2
20260507073025 16 315 1.6 6.4 0.00 0.00 0.00 90 1017.1
20260507071523 16 354 1.6 6.4 0.00 0.00 0.00 90 1017.2
20260507070027 16 336 1.6 4.8 0.00 0.00 0.00 89 1017.3
20260507064533 16 332 3.2 4.8 0.00 0.00 0.00 89 1017.4
20260507063027 16 335 1.6 6.4 0.00 0.00 0.00 89 1017.4
20260507061520 16 354 3.2 6.4 0.00 0.00 0.00 89 1017.5
20260507060021 16 330 3.2 6.4 0.00 0.00 0.00 89 1017.4
20260507054523 16 340 8.0 12.9 0.00 0.00 0.00 89 1017.5
20260507053018 16 305 6.4 12.9 0.00 0.00 0.00 89 1017.5
20260507051518 16 304 3.2 14.5 0.00 0.00 0.00 89 1017.5
20260507050024 16 316 8.0 14.5 0.00 0.00 0.00 88 1017.4
20260507044516 16 301 6.4 12.9 0.00 0.00 0.00 88 1017.3
20260507043016 16 354 4.8 16.1 0.00 0.00 0.00 88 1017.3
20260507041527 16 328 11.3 16.1 0.00 0.00 0.00 88 1017.2
20260507040014 16 328 14.5 19.3 0.00 0.00 0.00 88 1017.2
20260507034517 16 347 12.9 20.9 0.00 0.00 0.00 87 1017.0
20260507033014 17 359 8.0 17.7 0.00 0.00 0.00 88 1016.9
20260507031523 17 299 9.7 17.7 0.00 0.00 0.00 87 1016.8
20260507030014 17 320 9.7 20.9 0.00 0.00 0.00 88 1016.6
20260507024513 17 334 11.3 22.5 0.00 0.00 0.00 87 1016.5
20260507023011 17 296 19.3 27.4 0.00 0.00 0.00 87 1016.4
20260507021511 17 328 9.7 22.5 0.00 0.00 0.00 87 1016.4
20260507020011 17 330 14.5 20.9 0.00 0.00 0.00 87 1016.3
20260507014516 17 289 16.1 25.7 0.00 0.00 0.00 86 1016.3
20260507013014 17 322 16.1 24.1 0.00 0.00 0.00 85 1016.2
20260507011516 17 339 17.7 29.0 0.00 0.00 0.00 86 1016.2
20260507010008 17 308 20.9 29.0 0.00 0.00 0.00 85 1016.2
20260507004517 17 293 17.7 29.0 0.00 0.00 0.00 84 1016.2
20260507003006 18 274 11.3 22.5 0.00 0.00 0.00 83 1016.2
20260507001507 18 311 12.9 25.7 0.00 0.00 0.00 83 1016.1
20260507000006 18 288 17.7 30.6 0.00 0.00 0.00 83 1016.0
20260506234507 18 310 20.9 29.0 0.00 0.00 0.00 83 1016.0
20260506233005 18 338 12.9 30.6 0.00 0.00 0.00 83 1016.0
20260506231509 18 302 16.1 29.0 0.00 0.00 0.00 81 1016.1
20260506230002 18 310 19.3 29.0 0.00 0.00 0.00 81 1016.1
20260506224501 18 305 17.7 29.0 0.00 0.00 0.00 81 1016.2
20260506223100 18 308 19.3 30.6 0.00 0.00 0.00 81 1016.3
20260506221558 17 280 19.3 29.0 0.00 0.00 0.00 81 1016.5
20260506220057 17 314 19.3 27.4 0.00 0.00 0.00 80 1016.6
20260506214556 17 281 19.3 30.6 0.00 0.00 0.00 79 1016.7
20260506213118 18 281 17.7 24.1 0.00 0.00 0.00 79 1016.9